This is the latest recevied weather packets stored in our database for station/object KC0UFP. If no packets are shown the sender has not sent any weather packets the latest 10 day(s).
| Time | Temp. | Humidity | Pressure | Rain* | Wind** | Luminosity | Snow |
|---|---|---|---|---|---|---|---|
| 1777621803 | 11.67° C | 81% | 1015.6 hPa | 0 mm | - | 0 W/m² | - |
| 1777621501 | 11.67° C | 84% | 1015.5 hPa | 0 mm | - | 0 W/m² | - |
| 1777621197 | 11.67° C | 84% | 1015.6 hPa | 0 mm | - | 0 W/m² | - |
| 1777620893 | 11.67° C | 85% | 1015.4 hPa | 0 mm | - | 0 W/m² | - |
| 1777620589 | 11.67° C | 86% | 1015.5 hPa | 0 mm | - | 0 W/m² | - |
| 1777620286 | 11.67° C | 86% | 1015.4 hPa | 0 mm | - | 0 W/m² | - |
| 1777619983 | 11.67° C | 86% | 1015.6 hPa | 0 mm | - | 0 W/m² | - |
| 1777619679 | 11.67° C | 87% | 1015.8 hPa | 0 mm | - | 0 W/m² | - |
| 1777619378 | 11.67° C | 88% | 1016 hPa | 0 mm | - | 0 W/m² | - |
| 1777619073 | 11.67° C | 87% | 1015.6 hPa | 0 mm | - | 0 W/m² | - |
| 1777618768 | 11.67° C | 87% | 1015.6 hPa | 0 mm | - | 0 W/m² | - |
| 1777618463 | 11.67° C | 87% | 1015.8 hPa | 0 mm | - | 0 W/m² | - |
| 1777618161 | 11.67° C | 87% | 1016.1 hPa | 0 mm | - | 0 W/m² | - |
| 1777617857 | 11.67° C | 89% | 1015.7 hPa | 0 mm | - | 0 W/m² | - |
| 1777617557 | 11.67° C | 87% | 1015.7 hPa | 0 mm | - | 0 W/m² | - |
| 1777617254 | 12.22° C | 86% | 1015.9 hPa | 0 mm | - | 0 W/m² | - |
| 1777616951 | 12.22° C | 86% | 1016.1 hPa | 0 mm | - | 0 W/m² | - |
| 1777616646 | 12.22° C | 85% | 1016.1 hPa | 0 mm | - | 0 W/m² | - |
| 1777616341 | 12.22° C | 83% | 1016 hPa | 0 mm | - | 0 W/m² | - |
| 1777616039 | 12.78° C | 81% | 1016.2 hPa | 0 mm | - | 0 W/m² | - |
| 1777615735 | 12.78° C | 80% | 1016 hPa | 0 mm | - | 0 W/m² | - |
| 1777615432 | 12.22° C | 80% | 1016 hPa | 0 mm | - | 0 W/m² | - |
| 1777615131 | 12.22° C | 89% | 1016.2 hPa | 0 mm | - | 0 W/m² | - |
| 1777614827 | 12.22° C | 87% | 1016.1 hPa | 0 mm | - | 0 W/m² | - |
| 1777614524 | 12.22° C | 87% | 1016.1 hPa | 0 mm | - | 0 W/m² | - |
* Rain latest hour (hover to see other rain measurements)
** Current wind speed in m/s (hover to see current wind gust speed)